Terminal Aerodrome Forecast
Issued by NWS Northern Indiana

Home | Current Version | Previous Version | Text Only | Print | Product List | Glossary Off
Versions: 1 2 3 4 5 6 7 8 9 10 11 12 13 14 15 16

000
FTUS43 KIWX 220700 AAA
TAFFWA
TAF AMD
KFWA 220757Z 2208/2306 10005KT 4SM BR BKN200
     FM221300 12008KT 5SM BR BKN050
     FM222200 10010KT 4SM -RA BR OVC025=

USA.gov is the U.S. government's official web portal to all federal, state and local government web resources and services.